ONEWEB-0233 (48795 NORAD) Tracking and Keplerian Element Data

This shows tracking and keplerian element data for the satellite.

Feedback or suggestion? Click here.




ElementValue
Catalog48795
NameONEWEB-0233
Epoch Orbit192
Epoch Day170.58334491
Epoch Year2021
RAAN268.9139
Inclination87.4017
Eccentricity0.0007067
Argument of Perigee168.8322
Mean Anonmoly38.6131
Mean Motion15.26113552
Decay Rate-0.00901324
L11 48795U 21045AE 21170.58334491 -.00901324 00000-0 -38136-1 0 9996
L22 48795 87.4017 268.9139 0007067 168.8322 38.6131 15.26113552 1925

Live tracking and technical data element details for ONEWEB-0233 (NORAD 48795). ONEWEB-0233 can be tracked NOW for your location showing map with azimuth and elevation plus other details from your city location.

Track the satellite on the map from your city or location and see movement details for azimuth, elevation, latitude, longitude, range, height, and movement on the map or in text.







IsCatalogInMostPopularTable: catalog: 48795, numindb: 8
Update: records affected: 1



GetName: 48795 ONEWEB-0233

Hit Count: updated at: Mon, 21 Jun 2021 04:42:32 GMT